Regional Weather Roundup
Issued by NWS Cleveland, OH

Home | Current Version | Previous Version | Text Only | Print | Product List | Glossary Off
Versions: 1 2 3 4 5 6 7 8 9 10 11 12 13 14 15 16 17 18 19 20 21 22 23 24 25 26 27 28 29 30 31 32 33 34 35 36 37 38 39 40 41 42 43 44 45 46 47 48 49 50

000
ASUS41 KCLE 231902
RWRCLE
OHIO REGIONAL WEATHER ROUNDUP
NATIONAL WEATHER SERVICE CLEVELAND, OH
300 PM EDT WED JUL 23 2014

NOTE: "FAIR" INDICATES FEW OR NO CLOUDS BELOW 12,000 FEET WITH NO
SIGNIFICANT WEATHER AND/OR OBSTRUCTIONS TO VISIBILITY.

OHZ001>008-015>018-024>027-034-035-043-044-232000-
   NORTHWEST OHIO

CITY           SKY/WX    TMP DP  RH WIND       PRES   REMARKS
DEFIANCE       CLOUDY    71  61  70 N7        30.05F
FINDLAY        CLOUDY    70  65  84 N13       30.04S
TOLEDO EXPRESS CLOUDY    71  60  68 N8        30.05S
TOLEDO EXEC    CLOUDY    71  61  70 N7        30.06S
LIMA           CLOUDY    74  70  87 NW6       30.04F FOG
$$

OHZ009>014-019>023-028>033-038-089-232000-
   NORTHEAST OHIO

CITY           SKY/WX    TMP DP  RH WIND       PRES   REMARKS
CLE-HOPKINS    CLOUDY    66  63  90 N12       30.06S FOG
CLE-LAKEFRONT  CLOUDY    67  61  81 NW12      30.03S
CUY CO. ARPT   CLOUDY    66  64  94 NW7       30.05R
LORAIN-ELYRIA  CLOUDY    68  63  84 N10       30.06S HAZE
ASHTABULA      LGT RAIN  65  62  90 N8        30.03R FOG
AKRON-CANTON   CLOUDY    74  66  76 N12G18    30.02S
WOOSTER        CLOUDY    69  64  84 N13       30.04S
MANSFIELD      LGT RAIN  68  67  96 N12       30.04S FOG
YOUNGSTOWN     LGT RAIN  68  66  93 NW15      30.01R VSB 1
$$

OHZ042-051>053-060>062-070>072-077>081-232000-
  SOUTHWEST OHIO

CITY           SKY/WX    TMP DP  RH WIND       PRES   REMARKS
CINC-COVINGTON CLOUDY    78  69  73 SW10      30.00R
CINC-LUNKEN    CLOUDY    77  69  76 N5        30.01R
HAMILTON       CLOUDY    78  69  73 NW9       30.02R
DAYTON         CLOUDY    78  68  71 NW9       30.03R
WRIGHT-PAT AFB CLOUDY    77  67  71 N7        30.01F
DAYTON GENERAL CLOUDY    77  68  73 N12G18    30.02R
WILMINGTON     LGT RAIN  74  63  68 NW13G30   30.00S
$$

OHZ036-037-039>041-045>050-054>059-063>069-073>076-082>088-232000-
  CENTRAL AND SOUTHEAST OHIO

CITY           SKY/WX    TMP DP  RH WIND       PRES   REMARKS
COLUMBUS       PTSUNNY   82  67  60 NW15      30.00F
OSU AIRPORT    CLOUDY    78  68  71 NW14      30.01F
BOLTON FIELD   PTSUNNY   79  70  73 NW10      30.01F
RICKENBACK AFB PTSUNNY   84  62  47 W10G16    29.99F
NEWARK         CLOUDY    80  66  62 NW10      30.01F
MARION         CLOUDY    74  67  78 NW9       30.03S
LANCASTER      PTSUNNY   83  67  58 W9        30.01F
ZANESVILLE     MOSUNNY   81  64  56 NW12      30.00F
NEW PHILLY     PTSUNNY   79  68  69 W6G16     29.99F
$$


USA.gov is the U.S. government's official web portal to all federal, state and local government web resources and services.